GW4940 Weather Reports


time (UTC)temp
C
wind
direction
speed
KPH
gust
KPH
rain 1hr
cm
rain 24hr
cm
rain mn
cm
humidity
%
barometer
mb
20260508054029 2 274 0.0 0.0 0.00 0.00 0.00 98 1016.3
20260508053526 2 274 0.0 0.0 0.00 0.00 0.00 98 1016.4
20260508053024 2 274 0.0 0.0 0.00 0.00 0.00 98 1016.4
20260508052516 2 274 0.0 0.0 0.00 0.00 0.00 98 1016.4
20260508052012 2 274 0.0 0.0 0.00 0.00 0.00 97 1016.7
20260508051508 2 274 0.0 0.0 0.00 0.00 0.00 97 1016.3
20260508051003 2 274 0.0 0.0 0.00 0.00 0.00 97 1016.5
20260508050500 2 274 0.0 0.0 0.00 0.00 0.00 97 1016.6
20260508045956 2 274 0.0 0.0 0.00 0.00 0.00 97 1016.6
20260508045454 2 274 0.0 0.0 0.00 0.00 0.00 97 1016.5
20260508044951 2 274 0.0 0.0 0.00 0.00 0.00 97 1016.3
20260508044448 2 274 0.0 0.0 0.00 0.00 0.00 97 1016.5
20260508043943 3 274 0.0 0.0 0.00 0.00 0.00 97 1016.3
20260508043441 3 274 0.0 0.0 0.00 0.00 0.00 97 1016.4
20260508042937 3 274 0.0 0.0 0.00 0.00 0.00 96 1016.3
20260508042436 3 274 0.0 0.0 0.00 0.00 0.00 96 1016.2
20260508041932 3 274 0.0 0.0 0.00 0.00 0.00 96 1016.3
20260508041428 3 274 0.0 0.0 0.00 0.00 0.00 96 1016.3
20260508040925 3 274 0.0 0.0 0.00 0.00 0.00 96 1016.1
20260508040423 3 274 0.0 0.0 0.00 0.00 0.00 95 1016.3
20260508035920 3 274 0.0 0.0 0.00 0.08 0.08 95 1016.1
20260508035417 3 274 0.0 0.0 0.00 0.08 0.08 95 1015.8
20260508034914 3 274 0.0 0.0 0.00 0.08 0.08 95 1016.1
20260508034412 3 274 0.0 0.0 0.00 0.08 0.08 95 1016.1
20260508033908 3 274 0.0 0.0 0.00 0.08 0.08 95 1016.2
20260508033406 4 274 0.0 0.0 0.00 0.08 0.08 94 1016.1
20260508032904 4 274 0.0 0.0 0.00 0.08 0.08 94 1016.0
20260508032401 4 274 0.0 0.0 0.00 0.08 0.08 94 1015.8
20260508031857 4 274 0.0 0.0 0.00 0.08 0.08 93 1016.0
20260508031355 4 274 0.0 0.0 0.00 0.08 0.08 93 1015.8
20260508030850 4 274 0.0 0.0 0.00 0.08 0.08 92 1015.7
20260508030348 5 274 0.0 0.0 0.00 0.08 0.08 91 1015.8
20260508025844 5 274 0.0 0.0 0.00 0.08 0.08 91 1015.7
20260508025341 5 274 0.0 0.0 0.00 0.08 0.08 91 1015.3
20260508024837 5 274 0.0 0.0 0.00 0.08 0.08 91 1015.7
20260508024334 5 274 0.0 0.0 0.00 0.08 0.08 90 1015.6
20260508023831 5 274 0.0 0.0 0.00 0.08 0.08 89 1015.4
20260508023328 5 274 0.0 0.0 0.00 0.08 0.08 88 1015.6
20260508022825 5 274 0.0 0.0 0.00 0.08 0.08 88 1015.3
20260508022320 6 274 0.0 0.0 0.00 0.08 0.08 88 1015.3
20260508021818 6 274 0.0 0.0 0.00 0.08 0.08 88 1015.1
20260508021313 6 274 0.0 0.0 0.00 0.08 0.08 87 1015.1
20260508020810 6 274 0.0 0.0 0.00 0.08 0.08 86 1015.0
20260508020308 6 274 0.0 0.0 0.00 0.08 0.08 85 1015.1
20260508015804 6 273 0.0 0.0 0.00 0.08 0.08 83 1015.0
20260508015305 6 273 0.0 0.0 0.00 0.08 0.08 82 1014.8
20260508014758 7 273 0.0 0.0 0.00 0.08 0.08 82 1014.8
20260508014255 7 273 0.0 0.0 0.00 0.08 0.08 81 1014.9
20260508013751 7 273 0.0 0.0 0.00 0.08 0.08 80 1014.8
20260508013248 7 273 0.0 0.0 0.00 0.08 0.08 81 1014.6
20260508012745 7 270 0.0 0.0 0.00 0.08 0.08 81 1014.6
20260508012242 7 270 0.0 0.0 0.00 0.08 0.08 78 1014.5
20260508011740 8 273 0.0 0.0 0.00 0.08 0.08 77 1014.5
20260508011237 8 274 0.0 0.0 0.00 0.08 0.08 77 1014.3
20260508010734 8 289 0.0 0.0 0.00 0.08 0.08 78 1014.4
20260508010232 8 283 0.0 0.0 0.00 0.08 0.08 76 1014.2
20260508005729 8 280 0.0 1.6 0.00 0.08 0.08 73 1014.1
20260508005226 8 268 1.6 1.6 0.00 0.08 0.08 76 1014.1
20260508004721 9 281 0.0 3.2 0.00 0.08 0.08 74 1014.0
20260508004218 9 271 0.0 0.0 0.00 0.08 0.08 74 1014.2
20260508003714 9 273 0.0 1.6 0.00 0.08 0.08 74 1013.9
20260508003212 10 273 1.6 1.6 0.00 0.08 0.08 71 1014.0
20260508002708 10 281 3.2 3.2 0.00 0.08 0.08 68 1013.7
20260508002206 10 271 1.6 3.2 0.00 0.08 0.08 69 1013.9
20260508001701 11 273 1.6 1.6 0.00 0.08 0.08 59 1013.5
20260508001157 11 287 0.0 1.6 0.00 0.08 0.08 57 1013.5
20260508000653 12 276 1.6 3.2 0.00 0.08 0.08 53 1013.5
20260508000151 12 308 0.0 1.6 0.00 0.08 0.08 52 1013.2
20260507235647 13 309 1.6 1.6 0.00 0.08 0.08 46 1013.2
20260507235145 13 301 0.0 1.6 0.00 0.08 0.08 49 1013.2
20260507234642 13 280 1.6 4.8 0.00 0.08 0.08 50 1013.2
20260507234138 14 330 0.0 3.2 0.00 0.08 0.08 45 1013.0
20260507233635 13 240 1.6 3.2 0.00 0.08 0.08 45 1013.2
20260507233133 14 302 1.6 3.2 0.00 0.08 0.08 45 1013.0
20260507232629 13 289 3.2 6.4 0.00 0.08 0.08 46 1013.0
20260507232127 14 322 1.6 3.2 0.00 0.08 0.08 47 1012.9
20260507231623 15 306 1.6 6.4 0.00 0.08 0.08 45 1012.8
20260507231120 15 325 0.0 1.6 0.00 0.08 0.08 44 1012.5
20260507230616 15 275 0.0 3.2 0.00 0.08 0.08 42 1012.8
20260507230114 15 288 3.2 3.2 0.00 0.08 0.08 46 1012.8
20260507225608 15 303 1.6 4.8 0.00 0.08 0.08 43 1012.9
20260507225105 15 304 1.6 1.6 0.00 0.08 0.08 46 1012.5
20260507224600 15 275 1.6 4.8 0.00 0.08 0.08 43 1012.8
20260507224057 15 293 6.4 12.9 0.00 0.08 0.08 40 1012.5
20260507223554 17 311 3.2 4.8 0.00 0.08 0.08 42 1012.3
20260507223051 17 291 1.6 6.4 0.00 0.08 0.08 43 1012.4
20260507222548 17 327 8.0 11.3 0.00 0.08 0.08 37 1012.3
20260507222044 17 332 4.8 4.8 0.00 0.08 0.08 36 1012.3
20260507221540 16 248 3.2 11.3 0.00 0.08 0.08 38 1012.5
20260507221037 16 296 3.2 12.9 0.00 0.08 0.08 42 1012.5
20260507220535 16 348 0.0 3.2 0.00 0.08 0.08 41 1012.3
20260507220032 15 282 1.6 4.8 0.00 0.08 0.08 42 1012.2
20260507215528 16 280 1.6 4.8 0.00 0.08 0.08 43 1012.1
20260507215026 16 287 1.6 11.3 0.00 0.08 0.08 41 1012.1
20260507214523 16 317 3.2 3.2 0.00 0.08 0.08 44 1011.8
20260507214019 16 300 3.2 6.4 0.00 0.08 0.08 40 1011.9
20260507213515 16 302 1.6 4.8 0.00 0.08 0.08 42 1011.9
20260507213012 16 305 3.2 4.8 0.00 0.08 0.08 42 1012.0
20260507212508 16 190 1.6 3.2 0.00 0.08 0.08 39 1011.8
20260507212005 17 223 4.8 9.7 0.00 0.08 0.08 42 1012.0
20260507211502 17 240 1.6 6.4 0.00 0.08 0.08 40 1011.8
20260507210958 18 252 3.2 6.4 0.00 0.08 0.08 40 1011.7
20260507210455 17 276 3.2 4.8 0.00 0.08 0.08 42 1011.5
20260507205952 16 307 6.4 14.5 0.00 0.08 0.08 47 1011.7
20260507205449 18 300 6.4 9.7 0.00 0.08 0.08 42 1011.7
20260507204945 17 330 8.0 12.9 0.00 0.08 0.08 46 1011.9
20260507204442 17 110 0.0 6.4 0.00 0.08 0.08 40 1011.9
20260507203939 16 307 3.2 4.8 0.00 0.08 0.08 45 1011.5
20260507203437 16 351 1.6 4.8 0.00 0.08 0.08 41 1011.8
20260507202933 16 291 1.6 3.2 0.00 0.08 0.08 47 1011.6
20260507202430 16 311 3.2 4.8 0.00 0.08 0.08 46 1011.6
20260507201927 17 298 4.8 9.7 0.00 0.08 0.08 46 1011.5
20260507201421 17 304 3.2 9.7 0.00 0.08 0.08 47 1011.5
20260507200918 16 231 1.6 12.9 0.00 0.08 0.08 40 1011.8
20260507200414 17 281 4.8 11.3 0.00 0.08 0.08 41 1011.8
20260507195910 17 278 1.6 9.7 0.00 0.08 0.08 41 1012.1
20260507195408 17 285 9.7 12.9 0.00 0.08 0.08 42 1012.0
20260507194904 17 302 3.2 9.7 0.00 0.08 0.08 42 1012.1
20260507194401 16 315 3.2 3.2 0.00 0.08 0.08 49 1012.5
20260507193857 16 307 4.8 4.8 0.00 0.08 0.08 48 1012.2
20260507193354 15 304 3.2 4.8 0.00 0.08 0.08 48 1012.5
20260507192851 16 275 3.2 4.8 0.00 0.08 0.08 47 1012.5
20260507192347 17 260 4.8 11.3 0.00 0.08 0.08 44 1012.5
20260507191843 16 323 3.2 6.4 0.00 0.08 0.08 47 1012.4
20260507191340 16 295 1.6 4.8 0.00 0.08 0.08 45 1012.4
20260507190837 16 286 4.8 9.7 0.00 0.08 0.08 50 1012.5
20260507190335 16 153 0.0 4.8 0.00 0.08 0.08 45 1012.5
20260507185834 17 326 1.6 11.3 0.00 0.08 0.08 45 1012.6
20260507185330 17 317 6.4 9.7 0.00 0.08 0.08 44 1012.3
20260507184827 17 290 4.8 9.7 0.00 0.08 0.08 46 1012.5
20260507184325 17 337 4.8 11.3 0.00 0.08 0.08 46 1012.4
20260507183822 17 324 3.2 6.4 0.00 0.08 0.08 43 1012.5
20260507183319 16 324 4.8 12.9 0.00 0.08 0.08 50 1012.4
20260507182817 15 312 1.6 3.2 0.00 0.08 0.08 46 1012.3
20260507182313 16 323 1.6 9.7 0.00 0.08 0.08 43 1012.5
20260507181809 17 325 9.7 12.9 0.00 0.08 0.08 49 1012.8
20260507181305 17 113 3.2 3.2 0.00 0.08 0.08 45 1012.5
20260507180801 17 263 3.2 4.8 0.00 0.08 0.08 46 1012.6
20260507180259 17 282 1.6 4.8 0.00 0.08 0.08 46 1012.9
20260507175754 16 299 3.2 6.4 0.00 0.08 0.08 48 1012.8
20260507175251 16 257 3.2 6.4 0.00 0.08 0.08 53 1012.8
20260507174748 16 318 6.4 6.4 0.00 0.08 0.08 54 1012.5
20260507174246 16 322 1.6 3.2 0.00 0.08 0.08 47 1013.1
20260507173744 16 302 4.8 9.7 0.00 0.08 0.08 50 1012.9
20260507173241 17 320 1.6 6.4 0.00 0.08 0.08 45 1013.1
20260507172737 16 322 3.2 9.7 0.00 0.08 0.08 44 1013.3
20260507172234 16 309 6.4 9.7 0.00 0.08 0.08 52 1013.0
20260507171734 16 316 6.4 9.7 0.00 0.08 0.08 47 1013.4
20260507171232 16 337 0.0 4.8 0.00 0.08 0.08 45 1013.2
20260507170728 16 271 4.8 11.3 0.00 0.08 0.08 49 1013.2
20260507170225 16 163 3.2 6.4 0.00 0.08 0.08 46 1013.3
20260507165721 15 297 1.6 9.7 0.00 0.08 0.08 52 1013.4
20260507165217 15 194 0.0 4.8 0.00 0.08 0.08 48 1013.5
20260507164713 15 30 4.8 6.4 0.00 0.08 0.08 52 1013.5
20260507164211 16 90 3.2 3.2 0.00 0.08 0.08 47 1013.6
20260507163708 15 98 0.0 12.9 0.00 0.08 0.08 53 1013.7
20260507163206 15 67 3.2 4.8 0.00 0.08 0.08 46 1013.6
20260507162702 13 222 3.2 4.8 0.00 0.08 0.08 50 1013.7
20260507162158 15 295 3.2 6.4 0.00 0.08 0.08 52 1013.7
20260507161654 14 321 3.2 6.4 0.00 0.08 0.08 48 1013.9
20260507161151 15 301 1.6 4.8 0.00 0.08 0.08 51 1013.8
20260507160647 15 91 3.2 9.7 0.00 0.08 0.08 46 1013.9
20260507160144 15 207 1.6 4.8 0.00 0.08 0.08 51 1014.1
20260507155639 15 30 1.6 4.8 0.00 0.08 0.08 47 1014.0
20260507155136 15 292 3.2 6.4 0.00 0.08 0.08 51 1013.9
20260507154632 15 319 3.2 4.8 0.00 0.08 0.08 51 1014.2
20260507154130 14 62 0.0 1.6 0.00 0.08 0.08 56 1014.2
20260507153626 14 146 3.2 4.8 0.00 0.08 0.08 53 1014.1
20260507153123 13 291 4.8 4.8 0.00 0.08 0.08 58 1014.2
20260507152619 14 304 0.0 6.4 0.00 0.08 0.08 56 1014.4
20260507152115 15 181 0.0 3.2 0.00 0.08 0.08 54 1014.2
20260507151611 13 242 3.2 4.8 0.00 0.08 0.08 53 1014.2
20260507151109 14 326 1.6 4.8 0.00 0.08 0.08 51 1014.3
20260507150606 14 333 4.8 6.4 0.00 0.08 0.08 54 1014.3
20260507145557 13 230 4.8 6.4 0.00 0.08 0.08 53 1014.3
20260507145055 13 267 0.0 4.8 0.00 0.08 0.08 55 1014.4
20260507144551 14 320 1.6 4.8 0.00 0.08 0.08 55 1014.5
20260507144050 15 81 0.0 4.8 0.00 0.08 0.08 58 1014.4
20260507143546 14 70 4.8 6.4 0.00 0.08 0.08 56 1014.7
20260507143045 14 221 1.6 4.8 0.00 0.08 0.08 58 1014.7
20260507142544 14 42 0.0 4.8 0.00 0.08 0.08 57 1014.7
20260507142042 13 152 0.0 6.4 0.00 0.08 0.08 54 1014.9
20260507141537 13 308 4.8 6.4 0.00 0.08 0.08 56 1014.8
20260507141034 13 267 4.8 4.8 0.00 0.08 0.08 58 1015.1
20260507140531 13 146 3.2 3.2 0.00 0.08 0.08 62 1015.2
20260507140029 14 195 0.0 0.0 0.00 0.08 0.08 64 1015.2
20260507135525 13 316 3.2 4.8 0.00 0.08 0.08 68 1015.2
20260507135023 13 148 1.6 3.2 0.00 0.08 0.08 71 1015.1
20260507134519 13 316 3.2 3.2 0.00 0.08 0.08 69 1015.2
20260507134015 13 325 1.6 1.6 0.00 0.08 0.08 70 1015.2
20260507133511 12 134 1.6 1.6 0.00 0.08 0.08 70 1015.2
20260507133010 12 107 3.2 4.8 0.00 0.08 0.08 73 1015.3
20260507132506 12 278 0.0 0.0 0.00 0.08 0.08 81 1015.3
20260507132002 12 350 1.6 1.6 0.00 0.08 0.08 80 1015.4
20260507131459 12 334 0.0 1.6 0.00 0.08 0.08 78 1015.3
20260507130956 13 137 1.6 3.2 0.00 0.08 0.08 76 1015.3
20260507130453 12 182 0.0 1.6 0.00 0.08 0.08 77 1015.5
20260507125952 11 59 0.0 3.2 0.00 0.08 0.08 84 1015.6
20260507125449 12 120 0.0 0.0 0.00 0.08 0.08 80 1015.4
20260507124946 11 294 0.0 0.0 0.00 0.08 0.08 84 1015.5
20260507124443 10 295 0.0 0.0 0.00 0.08 0.08 91 1015.4
20260507123941 10 292 0.0 0.0 0.00 0.08 0.08 90 1015.3
20260507123438 10 306 0.0 0.0 0.00 0.08 0.08 91 1015.4
20260507122934 10 296 0.0 0.0 0.00 0.08 0.08 92 1015.6
20260507122430 10 301 0.0 0.0 0.00 0.08 0.08 92 1015.4
20260507121926 9 286 0.0 0.0 0.00 0.08 0.08 93 1015.5
20260507121421 9 294 0.0 0.0 0.00 0.08 0.08 94 1015.5
20260507120919 9 332 0.0 0.0 0.00 0.08 0.08 94 1015.4
20260507120415 9 313 0.0 0.0 0.00 0.08 0.08 96 1015.5
20260507115911 9 274 0.0 0.0 0.00 0.08 0.08 97 1015.7
20260507115407 8 325 0.0 0.0 0.00 0.08 0.08 98 1015.4
20260507114903 8 351 0.0 0.0 0.00 0.08 0.08 98 1015.3
20260507114400 8 343 0.0 0.0 0.00 0.08 0.08 98 1015.2
20260507113857 8 340 0.0 0.0 0.00 0.08 0.08 99 1015.2
20260507113354 8 340 0.0 0.0 0.00 0.08 0.08 99 1015.1
20260507112852 8 340 0.0 0.0 0.00 0.08 0.08 99 1014.8
20260507112349 8 340 0.0 0.0 0.00 0.08 0.08 99 1015.0
20260507111846 8 333 0.0 0.0 0.00 0.08 0.08 99 1014.9
20260507111343 8 332 0.0 0.0 0.00 0.08 0.08 99 1015.0
20260507110839 8 332 0.0 0.0 0.00 0.08 0.08 99 1014.7
20260507110335 8 329 0.0 0.0 0.00 0.08 0.08 99 1014.8
20260507105832 8 329 0.0 0.0 0.00 0.08 0.08 99 1014.7
20260507105329 8 329 0.0 0.0 0.00 0.08 0.08 99 1014.7
20260507104826 8 329 0.0 0.0 0.00 0.08 0.08 99 1014.7
20260507104322 8 329 0.0 0.0 0.00 0.08 0.08 99 1014.6
20260507103818 8 329 0.0 0.0 0.00 0.08 0.08 99 1014.6
20260507103315 8 329 0.0 0.0 0.00 0.08 0.08 99 1014.5
20260507102811 8 329 0.0 0.0 0.00 0.08 0.08 99 1014.7
20260507102308 8 329 0.0 0.0 0.00 0.08 0.08 99 1014.6
20260507101805 8 330 0.0 0.0 0.00 0.08 0.08 99 1014.5
20260507101305 8 330 0.0 0.0 0.00 0.08 0.08 99 1014.5
20260507100802 8 330 0.0 0.0 0.00 0.08 0.08 99 1014.4
20260507100300 8 330 0.0 0.0 0.00 0.08 0.08 98 1014.5
20260507095758 8 330 0.0 0.0 0.00 0.08 0.08 98 1014.4
20260507095254 8 330 0.0 0.0 0.00 0.08 0.08 98 1014.4
20260507094751 8 330 0.0 0.0 0.00 0.08 0.08 98 1014.2
20260507094248 8 330 0.0 0.0 0.00 0.08 0.08 98 1014.2
20260507093745 8 330 0.0 0.0 0.00 0.08 0.08 98 1014.3
20260507093244 8 330 0.0 0.0 0.00 0.08 0.08 98 1014.2
20260507092741 8 330 0.0 0.0 0.00 0.08 0.08 98 1014.4
20260507092237 8 330 0.0 0.0 0.00 0.08 0.08 98 1014.4
20260507091733 9 329 0.0 0.0 0.00 0.08 0.08 98 1014.4
20260507091230 8 330 0.0 0.0 0.00 0.08 0.08 98 1014.2
20260507090725 8 330 0.0 0.0 0.00 0.08 0.08 98 1014.2
20260507090222 9 330 0.0 0.0 0.00 0.08 0.08 98 1014.2
20260507085719 9 330 0.0 0.0 0.00 0.08 0.08 98 1014.2
20260507085216 9 330 0.0 0.0 0.00 0.08 0.08 98 1014.1
20260507084713 9 330 0.0 0.0 0.00 0.08 0.08 98 1014.2
20260507084209 9 330 0.0 0.0 0.00 0.08 0.08 98 1014.3
20260507083707 9 330 0.0 0.0 0.00 0.08 0.08 98 1014.3
20260507083203 9 330 0.0 0.0 0.00 0.08 0.08 98 1014.3
20260507082659 9 330 0.0 0.0 0.00 0.08 0.08 98 1014.3
20260507082155 9 330 0.0 0.0 0.00 0.08 0.08 98 1014.2
20260507081652 9 330 0.0 0.0 0.00 0.08 0.08 98 1014.2
20260507081149 9 330 0.0 0.0 0.00 0.08 0.08 98 1014.2
20260507080646 9 330 0.0 0.0 0.00 0.08 0.08 98 1014.1
20260507080142 9 330 0.0 0.0 0.00 0.08 0.08 98 1014.1
20260507075636 9 330 0.0 0.0 0.00 0.08 0.08 98 1014.2
20260507075133 9 334 0.0 0.0 0.00 0.08 0.08 98 1014.3
20260507074630 9 328 0.0 0.0 0.00 0.08 0.08 98 1014.4
20260507074128 9 327 0.0 0.0 0.00 0.08 0.08 98 1014.5
20260507073624 9 327 0.0 0.0 0.00 0.08 0.08 98 1014.5
20260507073120 9 326 0.0 0.0 0.00 0.08 0.08 98 1014.4
20260507072618 9 326 0.0 0.0 0.00 0.08 0.08 98 1014.6
20260507072115 9 326 0.0 0.0 0.00 0.08 0.08 98 1014.2
20260507071613 9 326 0.0 0.0 0.00 0.08 0.08 98 1014.4
20260507071109 9 326 0.0 0.0 0.00 0.08 0.08 98 1014.2
20260507070606 9 327 0.0 0.0 0.00 0.08 0.08 98 1014.5
20260507065559 10 332 0.0 0.0 0.00 0.08 0.08 98 1014.4
20260507065057 9 11 0.0 0.0 0.00 0.08 0.08 97 1014.2
20260507064554 9 24 0.0 0.0 0.00 0.08 0.08 97 1014.0
20260507064053 9 24 0.0 0.0 0.00 0.08 0.08 97 1014.2
20260507063550 9 26 0.0 0.0 0.00 0.08 0.08 97 1014.4
20260507063047 9 50 0.0 0.0 0.00 0.08 0.08 97 1014.2
20260507062543 9 50 0.0 0.0 0.00 0.08 0.08 97 1014.3
20260507062041 9 49 0.0 0.0 0.00 0.08 0.08 96 1014.3
20260507061538 9 50 0.0 0.0 0.00 0.08 0.08 96 1014.3
20260507061037 9 29 0.0 0.0 0.00 0.08 0.08 95 1014.3
20260507060534 10 307 0.0 0.0 0.00 0.08 0.08 96 1014.3
20260507060031 10 351 0.0 0.0 0.00 0.08 0.08 96 1014.4
20260507055531 10 297 0.0 0.0 0.00 0.08 0.08 96 1014.6
20260507055028 10 307 0.0 0.0 0.00 0.08 0.08 97 1014.7
20260507054524 10 316 0.0 0.0 0.00 0.08 0.08 97 1014.8